Portada
METAR-TAF:

METAR-TAF

Aeroports :

Nioro, Mali

latitud: 15-14N, longitud: 009-21W, altitud: 235 m

Observació

L'informe es va fer fa 1 hora i 18 minuts, a les 00:00 UTC
Vent 2 kt del Est/Nord-Est
Temperatura 20°C
Humitat 35%
Pressió 1015 hPa
Visibilitat 10 km o més
sense núvols per sota de 1500 mi sense presència de cumulonimbus.

METAR: GANR 110000Z 06002KT CAVOK 20/04 Q1015

Hora: 01:18 (01:18 UTC)


TAF: manca

Observacions i pronòstics meteorològics de més de 4000 aeroports (METAR i TAF).

Les estacions disponibles són els punts grocs i vermells al mapa.

Posi el ratolí al punt desitjat per veure el nom de l'estació.

Feu clic per veure les observacions i els pronòstics meteorològics.

Per canviar el mapa: feu clic els botons verds amb una creu de color negre per apropar; al botó verd amb un guió per allunyar la imatge; o en les fletxes verdes per a mapes adjacents.


METAR-TAF: